Wind_Speed
18 20 21 22 23 23 24 24 24 25 26 24 22 20 21 25 26 24 24 25 24 24 26 26 26 27 27 28 29 29 30 31 32 33 34 35 36 38 40 41 43 44 46 47
17 19 21 22 23 24 25 25 25 25 26 26 23 20 22 25 25 25 25 25 26 26 27 27 28 28 29 30 31 32 32 33 34 36 37 38 39 41 43 44 46 48 49 50
17 19 20 22 23 23 24 26 26 26 26 25 25 18 21 24 25 25 26 26 27 27 28 29 29 30 31 32 33 34 35 36 37 39 40 41 43 44 46 48 49 51 52 53
17 18 20 21 23 24 25 26 27 27 26 25 25 22 20 22 25 26 26 27 28 28 29 30 31 32 33 35 36 37 38 39 40 42 43 44 46 47 49 50 52 53 54 55
17 18 20 21 23 25 26 26 26 26 26 24 24 24 22 22 24 26 27 28 28 29 30 32 33 34 36 37 38 40 41 42 44 45 47 48 49 50 52 53 54 56 57 58
19 20 21 22 23 25 26 27 27 26 25 24 23 23 24 24 25 26 28 29 29 30 32 33 35 36 38 39 41 42 43 44 46 48 49 51 52 53 54 55 57 58 59 60
19 21 22 22 23 24 26 27 29 28 26 24 24 23 24 27 28 29 29 30 31 32 33 35 36 38 39 41 43 44 46 47 49 51 52 53 54 56 56 58 59 60 60 61
19 20 22 23 24 25 26 27 29 31 30 27 24 22 24 28 30 32 32 33 33 33 35 36 38 39 41 43 44 46 47 49 51 53 54 55 56 57 58 59 60 61 61 62
21 21 23 24 25 26 27 28 30 32 33 31 27 23 24 29 31 33 34 35 35 36 38 39 41 42 44 44 46 47 49 50 52 54 55 55 57 58 59 60 61 61 62 64
24 23 23 24 25 26 28 29 31 33 36 37 34 28 29 30 32 34 37 38 38 39 41 42 43 44 45 46 47 48 50 51 52 54 55 56 57 58 59 60 61 62 64 65
26 25 24 26 27 28 28 30 32 34 36 39 41 35 32 35 38 40 41 41 42 42 42 43 44 45 46 47 48 49 50 51 52 54 55 56 57 58 59 61 62 64 65 65
27 28 27 27 28 30 30 31 33 36 38 40 44 41 35 40 43 45 45 45 45 45 46 46 46 47 47 48 49 50 51 53 54 55 56 57 58 59 61 62 64 66 66 67
30 30 31 30 30 33 33 32 34 37 40 42 45 44 41 44 47 48 49 49 49 49 48 49 49 49 49 50 51 52 53 54 56 57 58 59 60 62 63 65 66 66 67 67
32 31 32 33 33 37 37 35 36 39 42 46 46 47 44 48 49 49 49 50 50 50 50 50 50 50 50 51 52 53 54 56 57 59 60 61 62 64 65 66 66 67 67 66
35 35 35 35 36 38 39 37 37 41 43 46 46 47 47 49 50 50 50 50 51 51 50 51 51 51 52 52 53 55 56 58 60 61 62 63 64 65 65 65 64 64 63 63
37 38 38 37 36 39 39 36 38 40 42 44 45 45 47 49 50 50 51 51 52 52 52 53 53 54 54 55 56 57 58 60 61 62 62 62 63 63 62 62 61 60 60 59
35 37 39 38 38 39 37 37 38 40 41 44 46 47 49 49 50 50 51 52 53 54 54 54 55 56 57 58 59 59 59 59 60 60 60 59 58 58 57 57 57 56 57 58
35 37 40 41 41 41 38 39 41 43 43 45 46 47 49 49 49 51 53 54 54 55 56 56 57 57 58 59 59 58 58 57 57 56 55 55 54 54 54 54 54 55 56 56
35 37 40 41 43 43 40 42 44 46 46 47 49 50 50 51 51 53 55 56 57 58 58 59 59 59 59 58 57 56 55 54 54 53 53 53 53 52 52 53 53 54 55 54
35 36 39 41 44 46 46 47 49 51 52 52 53 53 54 55 56 55 56 58 58 59 60 60 60 59 57 57 56 55 54 54 53 53 53 53 54 54 54 54 55 54 54 54
38 40 42 44 47 48 48 50 52 54 56 56 56 57 58 58 60 60 60 61 61 61 61 61 60 58 57 56 56 55 54 54 53 53 54 54 55 55 55 55 54 54 54 54
42 45 46 48 50 50 52 54 55 57 59 59 60 60 61 61 62 63 63 63 63 62 62 61 60 58 57 56 56 55 55 54 54 54 55 55 55 55 55 55 55 55 54 54
47 48 49 51 52 53 56 58 59 61 62 62 63 64 64 64 65 65 64 64 63 62 61 60 59 57 56 56 56 56 55 55 55 55 56 55 55 55 55 55 54 53 53 53
51 51 53 55 55 56 59 61 62 64 65 65 66 67 67 67 67 66 65 64 63 61 61 60 58 57 56 56 56 56 56 56 56 55 55 54 54 54 54 53 53 53 52 52
55 56 58 59 59 61 62 64 65 66 67 67 68 68 68 68 67 66 65 64 63 62 60 59 58 56 55 55 55 56 56 55 55 55 54 54 54 54 53 52 52 52 51 50
57 60 63 63 64 66 66 67 68 69 69 69 69 69 68 68 67 66 65 64 63 62 60 58 57 56 56 55 55 56 56 55 55 54 54 54 54 53 52 51 50 49 49 47
Wind_Direction
278 281 284 286 289 292 294 296 297 298 299 300 302 302 290 286 288 286 283 281 278 274 273 275 275 276 278 280 281 283 285 287 289 291 293 295 296 298 300 301 303 304 305 307
282 284 286 289 291 293 296 297 298 299 300 301 302 305 295 289 289 287 284 282 279 277 275 275 276 277 278 280 281 283 285 287 289 290 292 294 295 297 298 300 301 303 304 305
287 288 290 292 294 297 299 300 301 302 302 303 302 303 295 291 290 288 285 283 281 278 277 276 276 277 278 279 280 283 285 287 288 289 291 293 294 296 297 298 300 301 302 303
293 294 295 296 298 299 302 302 304 305 306 308 307 308 299 293 291 288 286 284 282 280 278 277 276 276 277 278 280 282 284 286 287 289 291 292 294 295 295 297 299 300 301 302
298 299 300 301 301 303 304 305 306 308 309 310 309 308 304 296 291 289 287 285 283 280 279 277 277 276 277 279 281 283 285 286 287 289 290 292 293 294 295 296 298 298 300 301
303 303 304 305 305 306 307 307 308 309 310 311 312 311 308 301 297 293 290 288 286 283 281 280 279 279 280 281 282 284 285 287 288 289 290 292 292 293 294 296 296 297 298 300
303 305 306 306 306 307 308 309 310 310 312 315 317 317 312 306 302 298 295 292 289 287 286 285 285 285 285 286 286 287 288 288 289 290 291 291 292 293 294 295 296 297 298 299
304 305 305 306 306 308 309 310 311 312 312 314 315 317 313 306 303 300 297 295 294 293 292 292 291 291 291 291 291 290 290 290 290 290 291 291 292 293 294 295 295 296 297 298
303 304 305 306 307 307 308 309 309 310 309 310 312 315 311 306 304 302 300 300 299 299 297 296 295 294 294 293 292 292 291 291 291 291 291 291 292 293 294 294 295 296 296 297
301 302 303 304 305 306 308 309 310 311 311 311 310 316 315 308 303 300 299 299 299 299 298 298 297 296 296 295 294 293 293 292 292 292 292 292 293 293 294 294 295 295 295 296
300 302 303 304 305 306 307 308 309 308 309 310 309 314 315 308 304 301 301 302 301 301 300 299 298 297 296 295 295 294 294 293 293 292 292 293 294 294 293 294 294 294 295 297
300 301 302 304 304 304 305 308 309 308 308 308 306 311 313 306 304 304 305 305 305 304 303 302 301 299 298 297 296 295 294 294 293 293 293 293 294 293 293 294 294 295 296 297
299 301 303 304 304 303 305 308 307 305 304 304 304 308 310 305 304 306 307 307 307 306 305 304 303 301 300 299 298 296 295 294 293 293 293 293 293 293 293 294 294 295 296 297
298 301 303 304 306 303 304 306 306 304 303 303 305 307 307 304 304 306 307 307 307 307 307 306 305 304 303 302 300 299 297 296 295 295 294 294 293 293 293 294 294 295 296 297
298 300 300 301 302 300 302 305 304 302 301 302 305 305 306 304 306 307 307 307 307 308 308 307 306 305 304 303 301 300 298 297 297 296 296 295 294 294 294 295 295 296 296 296
296 299 299 300 300 299 302 305 302 301 301 302 304 304 303 304 306 307 307 307 308 308 308 307 306 305 304 303 302 301 300 299 298 297 297 296 295 295 295 296 295 296 296 296
297 299 300 301 302 301 305 306 303 302 302 302 303 303 303 305 306 307 307 307 307 308 308 308 307 306 305 304 303 302 301 301 300 300 299 298 297 297 297 296 296 296 296 296
301 301 301 303 304 303 308 306 304 303 303 303 303 303 305 306 307 307 307 307 308 308 309 308 308 307 306 305 304 303 303 302 302 301 301 300 300 299 299 299 298 297 297 298
299 299 300 302 303 304 307 306 305 305 305 304 304 305 306 306 306 308 308 308 308 308 307 307 306 306 306 306 306 306 305 304 303 303 302 301 301 300 300 301 301 300 299 298
300 300 301 302 302 304 308 306 304 304 304 304 305 306 306 306 306 307 306 306 306 306 306 306 306 306 306 306 306 306 306 305 304 304 303 302 301 301 301 301 301 300 300 298
300 300 301 300 300 303 304 303 303 303 304 304 304 305 305 305 305 305 305 305 305 305 306 306 306 306 306 305 305 306 306 305 305 304 303 303 302 302 302 302 301 301 300 299
298 299 299 299 300 302 301 301 300 300 301 302 302 303 303 303 303 303 303 304 304 304 305 305 305 306 305 305 305 306 306 306 306 305 304 304 303 303 303 303 302 301 300 299
296 297 297 298 299 299 298 297 298 298 299 300 300 300 300 301 301 301 302 303 303 304 304 305 305 305 304 304 305 306 306 307 306 306 305 305 304 304 304 304 303 302 302 300
295 295 295 295 295 294 294 295 296 296 297 297 298 298 299 299 299 300 301 302 302 303 304 304 304 304 304 305 306 306 306 307 307 307 306 306 306 306 306 305 304 304 303 302
296 296 294 293 294 293 294 294 294 295 295 296 296 297 297 298 299 299 300 300 301 302 303 303 303 304 304 305 305 305 306 307 308 308 308 308 308 308 307 306 306 305 305 303
296 294 293 293 294 293 294 294 294 294 294 295 295 296 296 297 298 298 299 299 300 302 302 302 303 303 304 305 305 305 307 308 308 308 308 308 309 309 308 307 307 306 306 306
Height
5860 5860 5858 5856 5855 5854 5852 5850 5849 5846 5843 5842 5840 5839 5835 5831 5829 5827 5825 5824 5822 5821 5819 5817 5816 5814 5812 5810 5808 5806 5803 5800 5797 5794 5791 5788 5784 5779 5775 5770 5766 5760 5755 5750
5857 5856 5854 5852 5850 5849 5847 5845 5843 5842 5838 5836 5836 5834 5829 5825 5823 5821 5819 5817 5816 5814 5812 5811 5809 5807 5805 5803 5800 5798 5795 5792 5789 5786 5782 5779 5775 5771 5766 5761 5755 5750 5745 5739
5852 5852 5849 5848 5846 5844 5842 5839 5838 5836 5834 5831 5830 5830 5825 5820 5817 5815 5813 5811 5809 5807 5805 5804 5802 5799 5797 5795 5792 5789 5786 5783 5780 5776 5773 5770 5765 5761 5756 5750 5745 5740 5734 5728
5848 5847 5845 5843 5841 5839 5837 5835 5832 5830 5828 5826 5823 5822 5820 5815 5811 5809 5806 5804 5802 5800 5798 5796 5794 5791 5789 5786 5783 5781 5777 5774 5770 5766 5763 5759 5755 5751 5745 5739 5734 5728 5722 5716
5844 5843 5841 5839 5837 5834 5832 5829 5827 5825 5823 5822 5818 5816 5814 5810 5806 5802 5800 5797 5795 5793 5790 5788 5786 5783 5780 5777 5774 5771 5768 5764 5760 5756 5752 5748 5744 5739 5733 5728 5722 5716 5710 5703
5840 5838 5837 5834 5832 5829 5826 5824 5822 5820 5818 5817 5814 5810 5807 5803 5799 5796 5793 5790 5787 5785 5783 5780 5777 5775 5772 5768 5765 5762 5758 5754 5750 5745 5741 5736 5732 5726 5721 5715 5709 5702 5696 5690
5837 5834 5832 5829 5827 5825 5821 5819 5816 5814 5812 5811 5808 5804 5801 5795 5791 5788 5785 5782 5780 5777 5774 5772 5769 5766 5763 5759 5756 5752 5748 5744 5739 5734 5729 5724 5719 5713 5708 5702 5695 5689 5682 5676
5832 5831 5827 5824 5822 5819 5816 5813 5811 5807 5805 5804 5802 5800 5796 5789 5784 5780 5777 5774 5772 5769 5766 5764 5760 5757 5753 5750 5746 5742 5737 5733 5727 5722 5717 5711 5706 5700 5694 5688 5681 5674 5668 5661
5827 5826 5823 5819 5816 5814 5811 5808 5805 5801 5797 5796 5795 5794 5790 5783 5777 5773 5769 5766 5764 5761 5758 5754 5751 5747 5743 5739 5734 5730 5725 5720 5714 5709 5703 5698 5692 5686 5680 5673 5666 5659 5652 5645
5821 5820 5818 5814 5812 5808 5806 5802 5799 5794 5789 5785 5785 5786 5782 5776 5771 5767 5762 5759 5757 5753 5749 5745 5741 5736 5732 5727 5722 5717 5712 5707 5701 5695 5689 5683 5678 5671 5664 5657 5651 5644 5637 5629
5815 5814 5812 5809 5806 5803 5800 5797 5792 5788 5784 5778 5773 5779 5775 5767 5761 5757 5754 5751 5747 5744 5740 5735 5730 5725 5720 5715 5709 5704 5698 5692 5686 5680 5674 5669 5663 5655 5649 5642 5635 5628 5620 5613
5809 5807 5805 5804 5800 5796 5794 5791 5787 5782 5777 5771 5765 5769 5766 5758 5751 5747 5744 5740 5736 5732 5728 5723 5718 5713 5707 5702 5696 5690 5684 5678 5672 5665 5659 5653 5647 5639 5632 5626 5619 5611 5604 5596
5802 5800 5798 5797 5796 5790 5787 5784 5780 5775 5770 5764 5758 5759 5756 5747 5741 5737 5732 5728 5724 5719 5714 5709 5704 5699 5694 5688 5682 5676 5669 5663 5656 5650 5643 5637 5630 5623 5616 5609 5602 5594 5587 5579
5795 5794 5792 5789 5786 5781 5778 5777 5772 5766 5760 5755 5751 5747 5746 5737 5731 5728 5723 5717 5712 5707 5702 5696 5691 5685 5679 5673 5667 5661 5654 5647 5640 5634 5627 5621 5613 5606 5599 5592 5584 5577 5569 5562
5787 5785 5783 5781 5778 5773 5770 5769 5764 5757 5752 5746 5743 5737 5732 5725 5720 5716 5711 5705 5700 5694 5689 5683 5677 5671 5665 5658 5652 5645 5639 5631 5624 5618 5611 5603 5596 5588 5581 5574 5566 5559 5552 5545
5779 5776 5773 5772 5769 5764 5761 5760 5754 5748 5742 5737 5732 5728 5722 5715 5710 5704 5698 5692 5687 5681 5675 5669 5663 5656 5649 5643 5636 5630 5622 5615 5608 5600 5593 5586 5578 5571 5563 5556 5549 5542 5535 5528
5771 5768 5763 5761 5758 5754 5752 5749 5743 5738 5734 5729 5723 5718 5711 5706 5700 5693 5687 5681 5675 5668 5662 5655 5649 5642 5634 5627 5620 5613 5606 5599 5591 5583 5576 5568 5561 5554 5547 5540 5533 5526 5519 5512
5762 5758 5753 5750 5748 5743 5745 5738 5733 5727 5724 5718 5712 5706 5700 5695 5689 5682 5675 5668 5662 5655 5648 5641 5634 5627 5620 5612 5604 5597 5590 5582 5574 5567 5560 5552 5545 5538 5531 5524 5517 5510 5503 5497
5755 5750 5745 5741 5736 5733 5733 5728 5720 5715 5712 5706 5700 5694 5689 5683 5678 5671 5662 5655 5648 5641 5634 5627 5619 5612 5604 5597 5589 5582 5575 5567 5560 5552 5545 5537 5530 5524 5517 5510 5502 5495 5488 5481
5746 5742 5738 5732 5726 5722 5723 5715 5708 5703 5699 5693 5687 5681 5675 5669 5663 5660 5651 5643 5635 5627 5620 5612 5605 5597 5590 5582 5575 5568 5561 5553 5546 5538 5531 5523 5516 5509 5502 5495 5487 5480 5473 5466
5736 5731 5728 5722 5715 5712 5710 5702 5696 5691 5686 5679 5673 5667 5662 5655 5648 5643 5636 5628 5620 5613 5605 5598 5591 5583 5575 5568 5561 5554 5547 5539 5532 5524 5517 5509 5501 5494 5486 5479 5472 5464 5457 5450
5725 5721 5717 5711 5705 5703 5695 5689 5683 5678 5671 5665 5659 5653 5647 5641 5634 5627 5620 5612 5605 5598 5591 5583 5576 5569 5561 5553 5546 5540 5533 5526 5518 5510 5502 5494 5486 5478 5471 5463 5456 5448 5441 5434
5714 5710 5704 5700 5696 5689 5681 5674 5668 5662 5657 5651 5644 5638 5631 5625 5618 5612 5605 5598 5590 5583 5576 5569 5562 5555 5547 5539 5531 5525 5518 5511 5504 5496 5487 5479 5471 5463 5455 5447 5440 5433 5425 5419
5701 5696 5691 5686 5683 5675 5667 5660 5654 5648 5641 5635 5629 5622 5615 5609 5602 5596 5589 5582 5575 5568 5561 5554 5547 5541 5534 5525 5517 5510 5503 5496 5489 5481 5473 5465 5457 5449 5440 5432 5425 5417 5410 5404
5686 5681 5675 5670 5666 5659 5654 5646 5640 5633 5626 5619 5613 5606 5598 5592 5586 5579 5573 5566 5559 5553 5546 5539 5532 5525 5519 5511 5504 5496 5488 5481 5474 5466 5458 5450 5442 5434 5426 5418 5410 5403 5396 5389
5672 5663 5656 5653 5648 5641 5637 5629 5622 5616 5609 5603 5596 5589 5582 5575 5569 5563 5556 5550 5543 5537 5530 5524 5517 5510 5504 5497 5489 5481 5474 5467 5459 5452 5444 5436 5428 5419 5411 5404 5397 5389 5383 5376